Regional Weather Roundup
Issued by NWS

Home | Current Version | Previous Version | Graphics & Text | Print | Product List | Glossary On
Versions: 1 2 3 4 5 6 7 8 9 10 11 12 13 14 15 16 17 18 19 20 21 22 23 24 25 26 27 28 29 30 31 32 33 34 35 36 37 38 39 40 41 42 43 44 45 46 47 48 49 50
000
ASUS44 KMEG 251900
RWRTN
TENNESSEE HOURLY STATE WEATHER ROUNDUP
NATIONAL WEATHER SERVICE MEMPHIS TN
200 PM CDT MON SEP 25 2017

TNZ002-004-019-021-049-052-054-088>092-252000-
WEST TENNESSEE

CITY           SKY/WX    TMP DP  RH WIND       PRES   REMARKS
MEMPHIS INTL   MOSUNNY   86  64  47 E9        29.96F
NWS MEMPHIS      N/A     88 N/A N/A MISG        N/A
JACKSON        PTSUNNY   86  66  51 VRB6      29.98F
DYERSBURG      MOSUNNY   87  68  52 E5        29.97F HX  90
$$

TNZ008-025-027-028-033-062-065-066-252000-
NORTH MIDDLE TENNESSEE

CITY           SKY/WX    TMP DP  RH WIND       PRES   REMARKS
NASHVILLE      MOSUNNY   89  64  43 E8        30.00F HX  90
CLARKSVILLE    SUNNY     88  62  41 S3        29.99F
SMYRNA         MOSUNNY   86  64  48 NE5       30.03F
CROSSVILLE     MOSUNNY   82  61  48 CALM      30.07F
$$

TNZ061-075-076-078-094-096-097-252000-
SOUTH MIDDLE TENNESSEE

CITY           SKY/WX    TMP DP  RH WIND       PRES   REMARKS
$$

TNZ017-018-042-046-047-252000-
NORTHEAST TENNESSEE

CITY           SKY/WX    TMP DP  RH WIND       PRES   REMARKS
TRI CITIES     PTSUNNY   85  61  44 SE6       30.04F
$$

TNZ012-013-036-069-073-074-252000-
CENTRAL EAST TENNESSEE

CITY           SKY/WX    TMP DP  RH WIND       PRES   REMARKS
KNOXVILLE      PTSUNNY   85  61  44 W8        30.02F
OAK RIDGE      SUNNY     86  63  45 CALM      30.03F
GATLINBURG     MOSUNNY   84  61  45 VRB6      30.02F
$$

TNZ083-085-099-252000-
SOUTHEAST TENNESSEE

CITY           SKY/WX    TMP DP  RH WIND       PRES   REMARKS
CHATTANOOGA    MOSUNNY   86  58  38 S6        30.00F
$$

SKY/WX REPORTED AS FAIR MEANS FEW OR NO CLOUDS BELOW
12 THOUSAND FEET.




USA.gov is the U.S. government's official web portal to all federal, state and local government web resources and services.